User: anonymous   Login
Location: Aulnoy
(48.8410°N, 3.0967°E)
Time: 14:57:39
(UTC+00:00)
Language:

Cosmos 1461 - Orbit

View from above orbital plane
View from above orbital plane
View from above satellite
View from above satellite

Ground track
Ground track

The orbit data is extracted from the following two-line orbital elements,

1 14064U 83044A   23160.95322584  .00004001  00000-0  29135-3 0  9992
2 14064  65.0001 350.9950 0108364 260.8815  98.0031 15.00627472 49842
Epoch (UTC): 09 June 2023 22:52:38
Eccentricity: 0.0108364
inclination: 65.0001°
perigee height: 490 km
apogee height: 640 km
right ascension of ascending node: 350.9950°
argument of perigee: 260.8815°
revolutions per day: 15.00627472
mean anomaly at epoch: 98.0031°
orbit number at epoch: 4984

The dashed part of the orbit path shows where the satellite is in the earth's shadow,  

DLR